Starlink 34722

operational
NORAD ID: 64851 Int'l Des: 2025-152 Owner: SPXS Country: US Constellation: starlink
LEOCIRCULARRETROGRADESSO

About Starlink 34722

Description loading...

Live Position

Loading 3D Globe...

Upcoming Passes

Altitude History

Altitude vs Time

uPlot chart will show altitude changes over time

Two-Line Element Set

1 64851U 25152K 26063.16548159 .00007410 00000-0 51704-3 0 9997
2 64851 97.6009 280.0235 0001162 93.5244 266.6115 15.05662434 34587
Epoch: Mar 4, 2026 • Age: 21 hours

Current Status

Altitude 555.8 km
Velocity 7.59 km/s
Sub-Earth Point 45.28°N, 1.94°W
Launch Date Jul 19, 2025
Age 0.6 years
Type internet

Technical Details

Classification Payload
Mass 575.00 kg
Dry Mass 530.00 kg
Total Mass 575.00 kg
Length 0.30 m
Diameter 4.10 m
Span 29.00 m
Shape Box + pan
Manufacturer SPXS
Bus Type Starlink V2MO
Phase Status In Orbit
Owner/State SPXS/US

Large Constellations

Loading constellations...